EW1298 Weather Reports


time (UTC)temp
C
wind
direction
speed
KPH
gust
KPH
rain 1hr
cm
rain 24hr
cm
rain mn
cm
humidity
%
barometer
mb
20190223061719 -3 180 0.0 0.0 0.00 0.08 0.00 82 1026.8
20190223060131 -2 180 0.0 8.0 0.00 0.08 0.00 81 1026.6
20190223054655 -3 206 4.8 8.0 0.00 0.08 0.00 81 1026.8
20190223053150 -3 185 3.2 8.0 0.00 0.08 0.00 83 1027.1
20190223051548 -3 199 0.0 4.8 0.00 0.08 0.00 85 1027.1
20190223050122 -3 200 0.0 4.8 0.00 0.08 0.00 87 1027.0
20190223044617 -3 150 0.0 0.0 0.00 0.08 0.08 86 1026.9
20190223043130 -3 150 0.0 1.6 0.00 0.08 0.08 86 1027.3
20190223041606 -3 150 0.0 3.2 0.00 0.08 0.08 86 1027.4
20190223040106 -3 150 0.0 6.4 0.00 0.08 0.08 86 1027.6
20190223034558 -3 155 0.0 3.2 0.00 0.08 0.08 86 1027.7
20190223033122 -3 253 0.0 3.2 0.00 0.08 0.08 87 1027.7
20190223031620 -3 254 0.0 3.2 0.00 0.08 0.08 87 1027.7
20190223030103 -3 254 0.0 3.2 0.00 0.08 0.08 87 1027.7
20190223024545 -4 255 1.6 4.8 0.00 0.08 0.08 87 1027.7
20190223023121 -4 235 3.2 4.8 0.00 0.08 0.08 86 1027.6
20190223021543 -4 240 3.2 6.4 0.00 0.08 0.08 85 1027.4
20190223020128 -4 249 3.2 6.4 0.00 0.08 0.08 85 1027.4
20190223014611 -4 247 3.2 6.4 0.00 0.08 0.08 85 1027.4
20190223013059 -3 243 1.6 4.8 0.00 0.08 0.08 84 1027.6
20190223011543 -3 290 1.6 6.4 0.00 0.08 0.08 83 1027.5
20190223010105 -3 276 3.2 8.0 0.00 0.08 0.08 84 1027.5
20190223004542 -3 298 3.2 6.4 0.00 0.08 0.08 84 1027.5
20190223003121 -3 294 1.6 8.0 0.00 0.08 0.08 84 1027.3
20190223001611 -3 290 1.6 4.8 0.00 0.08 0.08 83 1027.2
20190223000100 -3 290 3.2 6.4 0.00 0.08 0.08 83 1027.0
20190222234638 -3 290 1.6 8.0 0.00 0.08 0.08 83 1026.9
20190222233124 -3 304 1.6 8.0 0.00 0.08 0.08 83 1026.8
20190222231538 -3 22 1.6 8.0 0.00 0.08 0.08 82 1026.8
20190222230052 -2 316 4.8 9.7 0.00 0.08 0.08 82 1026.9
20190222224534 -2 355 1.6 9.7 0.00 0.08 0.08 81 1026.9
20190222223134 -2 321 4.8 11.3 0.03 0.08 0.08 80 1027.3
20190222221554 -1 9 6.4 14.5 0.03 0.08 0.08 78 1027.1
20190222220056 0 317 3.2 9.7 0.03 0.08 0.08 70 1027.0
20190222214626 1 194 3.2 11.3 0.03 0.08 0.08 66 1027.1
20190222213046 1 216 1.6 8.0 0.03 0.05 0.05 65 1027.0
20190222211558 1 150 3.2 9.7 0.03 0.05 0.05 66 1027.0
20190222210041 1 257 3.2 11.3 0.03 0.05 0.05 65 1027.0
20190222204559 1 268 4.8 11.3 0.05 0.05 0.05 65 1027.0
20190222203119 1 169 3.2 11.3 0.03 0.03 0.03 66 1027.0
20190222201524 1 267 6.4 16.1 0.03 0.03 0.03 65 1027.2
20190222200047 1 208 8.0 16.1 0.03 0.03 0.03 65 1027.6
20190222194545 1 214 4.8 9.7 0.00 0.00 0.00 67 1027.4
20190222193034 1 223 1.6 11.3 0.00 0.00 0.00 64 1027.6
20190222191547 1 178 3.2 14.5 0.00 0.00 0.00 63 1027.6
20190222190127 2 175 9.7 16.1 0.00 0.00 0.00 63 1027.8
20190222184527 1 159 3.2 20.9 0.00 0.00 0.00 65 1028.0
20190222183107 1 219 8.0 24.1 0.00 0.00 0.00 64 1028.1
20190222181533 1 208 3.2 12.9 0.00 0.00 0.00 63 1028.0
20190222180024 1 140 6.4 14.5 0.00 0.00 0.00 66 1028.1
20190222174519 0 208 9.7 17.7 0.00 0.03 0.00 66 1028.3
20190222173035 0 175 3.2 17.7 0.00 0.03 0.00 70 1028.0
20190222171549 -1 169 4.8 14.5 0.00 0.03 0.00 70 1028.1
20190222170011 -1 183 6.4 16.1 0.00 0.03 0.00 69 1028.2
20190222164508 0 193 4.8 11.3 0.00 0.03 0.00 68 1028.2
20190222163026 0 150 6.4 19.3 0.00 0.03 0.00 66 1028.1
20190222161530 0 263 4.8 20.9 0.00 0.03 0.00 65 1028.0
20190222160006 0 164 6.4 14.5 0.00 0.03 0.00 66 1028.0
20190222154502 0 175 9.7 17.7 0.00 0.03 0.00 69 1028.2
20190222153147 -1 175 6.4 16.1 0.00 0.03 0.00 71 1028.1
20190222151701 -1 250 6.4 12.9 0.00 0.03 0.00 73 1028.3
20190222150158 -2 254 6.4 17.7 0.00 0.03 0.00 76 1028.6
20190222144626 -3 211 4.8 16.1 0.00 0.03 0.00 77 1028.7
20190222143110 -3 227 8.0 17.7 0.00 0.03 0.00 78 1028.9
20190222141652 -3 217 8.0 19.3 0.00 0.03 0.00 78 1028.8
20190222140149 -3 271 6.4 17.7 0.00 0.03 0.00 79 1028.8
20190222134641 -3 209 4.8 16.1 0.00 0.03 0.00 79 1028.6
20190222133158 -3 209 3.2 11.3 0.00 0.03 0.00 80 1028.5
20190222131641 -3 241 4.8 12.9 0.00 0.03 0.00 80 1028.4
20190222130112 -3 246 4.8 16.1 0.00 0.03 0.00 80 1028.3
20190222124624 -4 248 4.8 11.3 0.00 0.03 0.00 81 1028.0
20190222123102 -3 241 6.4 19.3 0.00 0.03 0.00 81 1027.9
20190222121625 -3 167 4.8 16.1 0.00 0.03 0.00 81 1027.9
20190222120109 -3 292 6.4 17.7 0.00 0.03 0.00 81 1027.9
20190222114631 -3 194 6.4 19.3 0.00 0.03 0.00 81 1027.7
20190222113131 -3 270 3.2 17.7 0.00 0.03 0.00 81 1027.6
20190222111554 -3 184 3.2 14.5 0.00 0.03 0.00 81 1027.6
20190222110105 -3 180 4.8 11.3 0.00 0.03 0.00 81 1027.5
20190222104653 -3 136 4.8 12.9 0.00 0.03 0.00 81 1027.4
20190222103042 -3 234 1.6 8.0 0.00 0.03 0.00 80 1027.2
20190222101556 -3 215 1.6 11.3 0.00 0.03 0.00 79 1027.0
20190222100057 -3 167 4.8 12.9 0.00 0.03 0.00 79 1026.9
20190222094552 -3 201 3.2 11.3 0.00 0.03 0.00 79 1026.9
20190222093040 -3 190 4.8 11.3 0.00 0.03 0.00 79 1026.9
20190222091557 -3 205 3.2 8.0 0.00 0.03 0.00 79 1026.9
20190222090041 -3 234 3.2 11.3 0.00 0.03 0.00 79 1026.8
20190222084539 -3 218 3.2 14.5 0.00 0.03 0.00 79 1026.7
20190222083031 -3 212 3.2 8.0 0.00 0.03 0.00 79 1026.6
20190222081523 -3 223 3.2 8.0 0.00 0.03 0.00 79 1026.8
20190222080021 -3 231 4.8 12.9 0.00 0.03 0.00 79 1026.8
20190222074541 -3 192 1.6 9.7 0.00 0.03 0.00 79 1026.6
20190222073025 -3 215 1.6 8.0 0.00 0.03 0.00 80 1026.1
20190222071532 -4 248 1.6 8.0 0.00 0.03 0.00 80 1025.7
20190222070013 -4 244 3.2 9.7 0.00 0.03 0.00 80 1025.6
20190222064510 -4 225 1.6 8.0 0.00 0.03 0.00 82 1025.5
20190222063003 -5 263 1.6 6.4 0.00 0.03 0.00 86 1025.3